Location: Ikejouine
(32.5142°N, 5.4699°W)
Time: 15:08:44
(UTC+00:00)

ATLAS 5 CENTAUR R/B - Pass Details

Date: 09 April 2020
Orbit: 242 x 12941 km, 20.2° (Epoch: 25 May)

Event Time Altitude Azimuth Distance (km) Brightness Sun altitude
Rises 18:49:19 0° 211° (SSW) 2,241 4.2 -1.2°
Reaches altitude 10° 18:51:27 10° 183° (S) 1,823 3.4 -1.6°
Maximum altitude 18:53:56 15° 144° (SE) 2,062 3.3 -2.1°
Drops below altitude 10° 18:58:20 10° 111° (ESE) 3,570 4.3 -3.0°
Enters shadow 19:02:35 - 99° (E) 5,265 5.1 -3.9°
